[[{"header":{"parameterUnit":"m.s-1","parameterCategory":1,"la1":30.2991,"la2":30.254,"lo1":-89.0895,"lo2":-89.0444,"dy":0.0017,"dx":0.0017,"nx":28,"ny":28,"refTime":"2024-05-04T03:00:00:Z","depth":0,"parameterNumber":2,"parameterNumberName":"U-component_of_WINDS"},"data":[0,0,0,0,0,0,0,0,0,0,0,0,0,0,0,0,0,0,0,0,0,0,0,0,0,0,0,0,0,0,0,0,0,0,0,0,0,0,0,0,0,0,0,0,0,0,0,0,0,0,0,0,0,0,0,0,0,0,-2.1162,-2.1162,0,-2.1105,-2.1104,-2.1104,-2.1022,-2.1021,-2.102,-2.1018,-2.0959,-2.0958,-2.0958,0,0,0,0,0,0,0,0,0,0,0,0,0,-2.1203,-2.1203,-2.1163,-2.1162,-2.1161,-2.1105,-2.1104,-2.1103,-2.1023,-2.1021,-2.1019,-2.1018,-2.0959,-2.0958,-2.0958,0,0,0,0,0,0,0,0,0,0,0,0,0,-2.117,-2.1203,-2.1163,-2.1114,-2.1109,-2.1105,-2.1104,-2.1103,-2.1023,-2.1021,-2.1019,-2.1017,-2.0959,-2.0959,-2.0958,-2.0997,0,0,-2.0957,-2.0957,0,0,0,0,0,0,0,0,-2.1172,-2.1168,-2.1122,-2.1117,-2.1112,-2.1069,-2.1097,-2.1068,-2.1024,-2.1056,-2.1018,-2.1016,-2.0997,-2.0993,-2.0987,-2.0994,-2.0992,-2.0957,-2.0956,-2.0956,-2.0956,0,0,0,0,0,0,0,-2.1174,-2.117,-2.114,-2.1121,-2.1115,-2.1095,-2.1088,-2.1091,-2.1039,-2.1053,-2.1047,-2.1041,-2.0994,-2.0988,-2.0985,-2.0991,-2.0957,-2.0956,-2.0956,-2.0956,-2.1028,-2.103,0,0,0,0,0,0,-2.1183,-2.1173,-2.1141,-2.1138,-2.1137,-2.1096,-2.1088,-2.1085,-2.1038,-2.1029,-2.1043,-2.1038,-2.0989,-2.0986,-2.0983,-2.1025,-2.0956,-2.0956,-2.0956,-2.1026,-2.1028,-2.1031,0,0,0,0,0,0,-2.1185,-2.1181,-2.1144,-2.1154,-2.1147,-2.1098,-2.1094,-2.1085,-2.1078,-2.1031,-2.1021,-2.1046,-2.0988,-2.0983,-2.0994,-2.1022,-2.0956,-2.0955,-2.1023,-2.1026,-2.1029,-2.1111,0,0,0,0,0,0,-2.1186,-2.1182,-2.1196,-2.1155,-2.1147,-2.1156,-2.1096,-2.1085,-2.1078,-2.107,-2.1031,-2.1023,-2.0986,-2.0995,-2.0994,-2.102,-2.0955,-2.102,-2.1024,-2.1028,-2.1105,-2.1116,-2.1126,0,0,0,0,0,-2.1188,-2.1221,-2.1197,-2.1194,-2.1164,-2.1158,-2.1154,-2.111,-2.108,-2.1094,-2.1064,-2.1024,-2.102,-2.0997,-2.0995,-2.1021,-2.1018,-2.1023,-2.1028,-2.1101,-2.1114,-2.1125,0,0,0,0,0,0,-2.1266,-2.1215,-2.1188,-2.1208,-2.1189,-2.1144,-2.116,-2.1126,-2.1114,-2.1107,-2.1054,-2.1046,-2.1063,-2.1043,-2.1019,-2.1057,-2.1013,-2.1018,-2.1069,-2.1081,-2.1091,-2.1095,-2.0954,0,0,0,0,0,-2.1287,-2.1287,-2.1241,-2.1264,-2.1255,-2.121,-2.1206,-2.1175,-2.1151,-2.1142,-2.1113,-2.1092,-2.1086,-2.1083,-2.1074,-2.1103,-2.1093,-2.112,-2.113,-2.1139,-2.1143,-2.1157,-2.1168,-2.1047,-2.1047,-2.1047,0,0,-2.1327,-2.1299,-2.1302,-2.1279,-2.126,-2.1261,-2.1203,-2.1207,-2.1207,-2.1143,-2.1151,-2.1129,-2.1103,-2.1123,-2.113,-2.1107,-2.1175,-2.1145,-2.1152,-2.1152,-2.1163,-2.1175,-2.1185,-2.105,-2.1049,-2.1049,0,0,-2.1402,-2.1381,-2.1397,-2.138,-2.1352,-2.1322,-2.1326,-2.1288,-2.1271,-2.1279,-2.1231,-2.1231,-2.1221,-2.1204,-2.1195,-2.1266,-2.1229,-2.1265,-2.1318,-2.1332,-2.1342,-2.135,-2.1375,-2.1385,-2.1269,-2.127,-2.127,0,-2.1456,-2.1455,-2.141,-2.1417,-2.1409,-2.1352,-2.1368,-2.1354,-2.1324,-2.132,-2.1295,-2.1282,-2.126,-2.1276,-2.1293,-2.1288,-2.1291,-2.1268,-2.1344,-2.1352,-2.1359,-2.1382,-2.1392,-2.1274,-2.1274,-2.1273,-2.1273,0,-2.1523,-2.1524,-2.1541,-2.1515,-2.1509,-2.1521,-2.1477,-2.1477,-2.1447,-2.142,-2.1429,-2.1401,-2.1387,-2.1388,-2.1359,-2.14,-2.1387,-2.1354,-2.1308,-2.1376,-2.1397,-2.1405,-2.1281,-2.1279,-2.1278,-2.1277,0,0,-2.1643,-2.1594,-2.1601,-2.1588,-2.1555,-2.1554,-2.1565,-2.1551,-2.1551,-2.1534,-2.1541,-2.1535,-2.1505,-2.1494,-2.1462,-2.1475,-2.1534,-2.144,-2.1439,-2.1458,-2.1578,-2.1602,-2.1613,-2.151,-2.1511,-2.1512,-2.158,0,-2.171,-2.1724,-2.1685,-2.1709,-2.1709,-2.1657,-2.1665,-2.1646,-2.1622,-2.1619,-2.1592,-2.1589,-2.1549,-2.1542,-2.1553,-2.1524,-2.1557,-2.1519,-2.1515,-2.1516,-2.1522,-2.1624,-2.1649,-2.1714,-2.1588,-2.1589,-2.159,0,-2.179,-2.1778,-2.1802,-2.1768,-2.1767,-2.1775,-2.176,-2.1758,-2.1736,-2.1717,-2.1706,-2.167,-2.1678,-2.1636,-2.1646,-2.1622,-2.1618,-2.1604,-2.1606,-2.1602,-2.1556,-2.1623,-2.1733,-2.1743,-2.1603,-2.1602,-2.1601,0,-2.1875,-2.1864,-2.1877,-2.1869,-2.1829,-2.1837,-2.1821,-2.1796,-2.1791,-2.1778,-2.1774,-2.1763,-2.1756,-2.1749,-2.171,-2.1683,-2.1725,-2.168,-2.171,-2.1711,-2.1719,-2.1719,-2.183,-2.172,-2.172,-2.1719,-2.1719,0,-2.1953,-2.1969,-2.1915,-2.1923,-2.194,-2.1896,-2.1914,-2.1893,-2.1872,-2.1875,-2.183,-2.1834,-2.1784,-2.1783,-2.1753,-2.1766,-2.1764,-2.1749,-2.1741,-2.1752,-2.1754,-2.1748,-2.1742,-2.1722,-2.1721,-2.1721,-2.1721,0,-2.2049,-2.2013,-2.2024,-2.1987,-2.1978,-2.1993,-2.1961,-2.1967,-2.1941,-2.1946,-2.1944,-2.1903,-2.19,-2.1862,-2.1849,-2.183,-2.1854,-2.1838,-2.1862,-2.1856,-2.1888,-2.1885,-2.1998,-2.201,-2.1893,-2.1894,-2.1895,0,-2.2101,-2.2112,-2.2077,-2.2076,-2.2063,-2.2062,-2.2057,-2.2014,-2.2011,-2.1987,-2.1996,-2.1989,-2.1981,-2.1978,-2.1947,-2.1938,-2.192,-2.1961,-2.1918,-2.193,-2.192,-2.1919,-2.192,-2.1969,-2.1971,-2.1972,-2.1973,0,-2.2196,-2.2178,-2.2172,-2.2161,-2.2157,-2.2146,-2.2132,-2.2134,-2.2087,-2.2086,-2.2082,-2.2076,-2.2064,-2.2058,-2.2044,-2.2027,-2.1993,-2.1987,-2.1993,-2.2004,-2.2017,-2.201,-2.1885,-2.1984,-2.1983,-2.1982,-2.1981,-2.1981,-2.227,-2.2279,-2.2256,-2.2251,-2.2237,-2.2226,-2.223,-2.2205,-2.2201,-2.2188,-2.2164,-2.2164,-2.2143,-2.212,-2.2107,-2.2107,-2.2086,-2.2095,-2.2097,-2.21,-2.2106,-2.2019,-2.2104,-2.2104,-2.2103,-2.2103,-2.2103,0,-2.2363,-2.2346,-2.2343,-2.2325,-2.2322,-2.2291,-2.2275,-2.2274,-2.2275,-2.2258,-2.2252,-2.2248,-2.2242,-2.2212,-2.2203,-2.2208,-2.2192,-2.2207,-2.2206,-2.2203,-2.2126,-2.2121,-2.2221,-2.2221,-2.2221,-2.2221,-2.2221,-2.2221,-2.241,-2.2423,-2.2403,-2.2408,-2.2391,-2.2391,-2.2384,-2.2374,-2.236,-2.2358,-2.2354,-2.2334,-2.2312,-2.2302,-2.2295,-2.2286,-2.2285,-2.2305,-2.2291,-2.2219,-2.2208,-2.2197,-2.2192,-2.2306,-2.2306,-2.2368,-2.2369,-2.2369]},{"header":{"parameterUnit":"m.s-1","parameterCategory":1,"la1":30.2991,"la2":30.254,"lo1":-89.0895,"lo2":-89.0444,"dy":0.0017,"dx":0.0017,"nx":28,"ny":28,"refTime":"2024-05-04T03:00:00:Z","depth":0,"parameterNumber":3,"parameterNumberName":"V-component_of_WINDS"},"data":[0,0,0,0,0,0,0,0,0,0,0,0,0,0,0,0,0,0,0,0,0,0,0,0,0,0,0,0,0,0,0,0,0,0,0,0,0,0,0,0,0,0,0,0,0,0,0,0,0,0,0,0,0,0,0,0,0,0,0.6942,0.6941,0,0.6847,0.6846,0.6845,0.6756,0.6755,0.6754,0.6752,0.665,0.6649,0.6647,0,0,0,0,0,0,0,0,0,0,0,0,0,0.7045,0.7044,0.6943,0.6941,0.694,0.6847,0.6846,0.6845,0.6756,0.6755,0.6753,0.6752,0.6651,0.6649,0.6647,0,0,0,0,0,0,0,0,0,0,0,0,0,0.698,0.7043,0.6943,0.6885,0.6879,0.6847,0.6846,0.6844,0.6756,0.6755,0.6753,0.6751,0.6651,0.6649,0.6646,0.6663,0,0,0.6639,0.6637,0,0,0,0,0,0,0,0,0.6984,0.6976,0.6895,0.6889,0.6882,0.6812,0.6844,0.6783,0.6757,0.6803,0.6752,0.6751,0.6705,0.6698,0.6683,0.6659,0.6654,0.6638,0.6637,0.6636,0.6635,0,0,0,0,0,0,0,0.6988,0.698,0.6904,0.6893,0.6886,0.6863,0.6852,0.6832,0.6764,0.6798,0.6792,0.6782,0.6701,0.6686,0.668,0.6653,0.6638,0.6636,0.6635,0.6634,0.6638,0.664,0,0,0,0,0,0,0.7002,0.6984,0.6908,0.6902,0.693,0.6862,0.685,0.6836,0.6764,0.6751,0.6783,0.6778,0.6691,0.6683,0.6676,0.6692,0.6636,0.6633,0.6632,0.6637,0.6639,0.6641,0,0,0,0,0,0,0.7005,0.6996,0.6911,0.6941,0.6929,0.6862,0.6847,0.6835,0.682,0.6753,0.674,0.6781,0.669,0.668,0.6668,0.6688,0.6632,0.663,0.6635,0.6637,0.664,0.6725,0,0,0,0,0,0,0.7008,0.6998,0.7004,0.6942,0.6927,0.6906,0.6848,0.6834,0.6816,0.6808,0.6747,0.6735,0.6688,0.6672,0.6665,0.6683,0.6628,0.6633,0.6636,0.6639,0.672,0.673,0.6738,0,0,0,0,0,0.7012,0.703,0.7005,0.6996,0.6934,0.6907,0.6898,0.6845,0.6818,0.6823,0.6781,0.6737,0.6687,0.6672,0.6663,0.6681,0.6631,0.6635,0.6639,0.6716,0.6728,0.6738,0,0,0,0,0,0,0.7094,0.7021,0.6992,0.6991,0.6956,0.6892,0.6897,0.6859,0.683,0.6824,0.6757,0.6744,0.674,0.6709,0.6693,0.6694,0.6653,0.6655,0.6714,0.6725,0.6735,0.6742,0.6626,0,0,0,0,0,0.7113,0.7098,0.7034,0.7039,0.7024,0.6964,0.695,0.6912,0.6873,0.6857,0.6813,0.6776,0.6751,0.6737,0.671,0.6715,0.6701,0.6723,0.6732,0.674,0.6743,0.6744,0.6753,0.6653,0.6653,0.6653,0,0,0.715,0.7108,0.7102,0.7055,0.7024,0.7009,0.6952,0.6938,0.6927,0.6854,0.6841,0.6808,0.6761,0.6759,0.6755,0.6732,0.6768,0.6745,0.6752,0.675,0.6749,0.6758,0.6767,0.6655,0.6655,0.6655,0,0,0.721,0.7177,0.7178,0.7149,0.7103,0.7063,0.7064,0.7006,0.6982,0.6968,0.6914,0.6899,0.6858,0.6828,0.6807,0.6859,0.6818,0.6852,0.69,0.6902,0.691,0.6917,0.6936,0.6944,0.6855,0.6855,0.6855,0,0.7261,0.7239,0.7183,0.7174,0.7155,0.7091,0.7092,0.7066,0.7013,0.7001,0.6977,0.6927,0.6891,0.688,0.6894,0.6879,0.6877,0.6858,0.6914,0.692,0.6925,0.6943,0.695,0.686,0.6859,0.6859,0.6858,0,0.7305,0.729,0.7296,0.725,0.7231,0.7227,0.7171,0.7159,0.7123,0.7086,0.7074,0.7029,0.6993,0.6988,0.6952,0.6973,0.6961,0.6927,0.6884,0.6941,0.6956,0.6962,0.6866,0.6865,0.6863,0.6862,0,0,0.7412,0.7337,0.7341,0.7319,0.7265,0.7252,0.7245,0.7213,0.7204,0.717,0.7163,0.7132,0.71,0.7077,0.7037,0.7039,0.7084,0.7004,0.7002,0.7021,0.7106,0.7132,0.7141,0.7057,0.7058,0.7059,0.711,0,0.7464,0.7449,0.7401,0.7401,0.7387,0.7327,0.7321,0.7287,0.7253,0.7235,0.7196,0.7176,0.7135,0.7121,0.7121,0.7079,0.7101,0.7075,0.7049,0.7049,0.7063,0.7149,0.7176,0.7226,0.7116,0.7117,0.7117,0,0.7521,0.7494,0.7494,0.7442,0.7434,0.743,0.7397,0.7381,0.7341,0.7316,0.7292,0.7249,0.7238,0.7199,0.7184,0.7168,0.7154,0.7133,0.7133,0.7129,0.7087,0.7147,0.7241,0.7249,0.7126,0.7125,0.7125,0,0.7601,0.7564,0.7559,0.7543,0.7482,0.7481,0.7455,0.7414,0.7398,0.7369,0.7358,0.7328,0.7311,0.7288,0.7238,0.7214,0.7228,0.7185,0.7207,0.7208,0.7212,0.7212,0.7306,0.7204,0.7204,0.7203,0.7203,0,0.7664,0.7666,0.7595,0.7592,0.7593,0.7537,0.7539,0.7507,0.7472,0.7461,0.7407,0.7398,0.7332,0.7315,0.7276,0.7269,0.7262,0.7241,0.7231,0.7246,0.7249,0.7236,0.7232,0.7205,0.7205,0.7204,0.7204,0,0.7752,0.7705,0.7696,0.764,0.7626,0.763,0.7581,0.7576,0.7539,0.7527,0.7521,0.7463,0.7441,0.7389,0.7352,0.7326,0.733,0.731,0.7344,0.7337,0.7363,0.7361,0.7451,0.746,0.7353,0.7354,0.7355,0,0.7795,0.7796,0.7741,0.7732,0.7709,0.7693,0.7678,0.7623,0.7608,0.7565,0.7565,0.7539,0.7516,0.7483,0.7437,0.741,0.7389,0.7423,0.7384,0.7401,0.739,0.7391,0.7391,0.7431,0.7432,0.7434,0.7434,0,0.7877,0.7854,0.7835,0.7808,0.7791,0.7767,0.7739,0.7733,0.7672,0.7658,0.7637,0.7619,0.7583,0.7558,0.7524,0.7496,0.7455,0.7447,0.7451,0.7467,0.7487,0.7477,0.7367,0.7445,0.7444,0.7443,0.7443,0.7442,0.7944,0.7943,0.7905,0.7885,0.7859,0.7835,0.7829,0.7792,0.7774,0.7742,0.771,0.7692,0.7653,0.7603,0.7579,0.7563,0.7542,0.7547,0.7548,0.7551,0.7558,0.749,0.7556,0.7556,0.7556,0.7555,0.7555,0,0.8024,0.7997,0.798,0.7944,0.7929,0.7894,0.7862,0.7852,0.7837,0.7805,0.7784,0.776,0.7736,0.7689,0.7661,0.7658,0.7639,0.7653,0.7652,0.7647,0.7578,0.7578,0.7669,0.7669,0.7669,0.7669,0.7669,0.7669,0.8064,0.806,0.8033,0.8016,0.7989,0.7972,0.7957,0.7934,0.7909,0.7885,0.7866,0.7836,0.7799,0.7768,0.7745,0.7732,0.7724,0.7744,0.7725,0.7662,0.7651,0.7641,0.7641,0.7743,0.7743,0.7795,0.7796,0.7796]}]]